STARLINK-1262 (45366 NORAD) Tracking and Keplerian Element Data

This shows tracking and keplerian element data for the satellite.

Feedback or suggestion? Click here.




ElementValue
Catalog45366
NameSTARLINK-1262
Epoch Orbit1768
Epoch Day190.25001157
Epoch Year2020
RAAN101.184
Inclination52.9996
Eccentricity0.0001457
Argument of Perigee89.3378
Mean Anonmoly3.9302
Mean Motion15.05552921
Decay Rate0.00030912
L11 45366U 20019G 20190.25001157 .00030912 00000-0 21330-2 0 9995
L22 45366 52.9996 101.1840 0001457 89.3378 3.9302 15.05552921 17680

Live tracking and technical data element details for STARLINK-1262 (NORAD 45366). STARLINK-1262 can be tracked NOW for your location showing map with azimuth and elevation plus other details from your city location.

Track the satellite on the map from your city or location and see movement details for azimuth, elevation, latitude, longitude, range, height, and movement on the map or in text.







IsCatalogInMostPopularTable: catalog: 45366, numindb: 24
Update: records affected: 1



GetName: 45366 STARLINK-1262

Hit Count: updated at: Thu, 09 Jul 2020 00:42:47 GMT